Regional Weather Roundup
Issued by NWS Huntsville, AL

Home | Current Version | Previous Version | Text Only | Print | Product List | Glossary On
Versions: 1 2 3 4 5 6 7 8 9 10 11 12 13 14 15 16 17 18 19 20 21 22 23 24 25 26 27 28 29 30 31 32 33 34 35 36 37 38 39 40 41 42 43 44 45 46 47 48 49 50
000
ASUS44 KHUN 012010
RWRHUN

WEATHER ROUNDUP FOR THE TENNESSEE VALLEY
NATIONAL WEATHER SERVICE HUNTSVILLE AL
300 PM CDT SUN MAY 01 2016

ALZ001>004-012100-
NORTHWEST ALABAMA

CITY           SKY/WX    TMP DP  RH WIND       PRES   REMARKS
COURTLAND HCN    N/A     75 N/A N/A S5          N/A
RUSSELLVILLE     N/A     72 N/A N/A MISG        N/A
SHOALS AIRPORT NOT AVBL
SHOALS TVA RES   N/A     75 N/A N/A MISG        N/A
$$

ALZ005>007-016-012100-
NORTH CENTRAL ALABAMA

CITY           SKY/WX    TMP DP  RH WIND       PRES   REMARKS
CULLMAN AG STN   N/A     70 N/A N/A SW6         N/A
DECATUR AP     PTSUNNY   73  67  81 S16       29.99R
HUNTSVILLE AP  PTSUNNY   76  65  68 S12       29.98R
HUN NWS/UAH      N/A     76  64  67 S8          N/A
MERIDIANVILLE  PTSUNNY   77  59  53 S9        29.99R
REDSTONE ARSN  PTSUNNY   75  67  76 SW13      29.98R
VINEMONT AP    FAIR      70  65  85 S7        30.04S
$$

ALZ008>010-012100-
NORTHEAST ALABAMA

CITY           SKY/WX    TMP DP  RH WIND       PRES   REMARKS
ALBERTVILLE    DRIZZLE   72  72 100 SW5       30.01S
FORT PAYNE     PTSUNNY   75  63  64 SW8       29.99F
SCOTTSBORO AP  PTSUNNY   77  64  65 SW8       29.99F
SCOTTSBORO HCN   N/A     77 N/A N/A MISG        N/A
VALLEY HEAD      N/A     75 N/A N/A MISG        N/A
$$

TNZ076-096-097-012100-
SOUTHEASTERN MIDDLE TENNESSEE

CITY           SKY/WX    TMP DP  RH WIND       PRES   REMARKS
TULLAHOMA      MOSUNNY   75  66  73 S7        29.98F
WINCHESTER     MOSUNNY   79  64  61 SW6       29.97F
$$

...SURROUNDING SITES...

CITY           SKY/WX    TMP DP  RH WIND       PRES   REMARKS
ATLANTA        CLOUDY    82  63  52 SW8       30.00F
ANNISTON       CLOUDY    78  67  68 CALM      30.00F
BIRMINGHAM     LGT RAIN  74  70  87 W7        30.03S
CHATTANOOGA    PTSUNNY   81  64  56 SW13      29.97F
DALTON         PTSUNNY   79  66  65 SW6       29.99S
GADSDEN        CLOUDY    76  70  82 SW3       30.01R
GOLDEN TRNGL   PTSUNNY   66  64  94 SE12      29.98F
HALEYVILLE     LGT RAIN  68  65  90 SW12      30.05R
JACKSON TN     TSTM      76  67  73 S8        29.92R
MEMPHIS        LGT RAIN  79  70  73 SW8       29.94R
NASHVILLE      CLOUDY    82  62  50 SW7       29.93F
OXFORD MS      PTSUNNY   77  66  69 SE10      29.96S
ROME           PTSUNNY   79  67  66 SW6       29.98F
SAVANNAH       MOSUNNY   79  66  65 S12       29.95R
TUPELO         CLOUDY    75  66  73 SE10      29.97F
TUSCALOOSA     CLOUDY    68  66  93 CALM      30.02F
$$

...GULF COAST WEATHER...

CITY           SKY/WX    TMP DP  RH WIND       PRES   REMARKS
GULFPORT       RAIN      70  67  90 E8        30.00F FOG
PASCAGOULA     LGT RAIN  75  74  96 CALM      30.02R
MOBILE         LGT RAIN  76  73  91 SW5       30.04R
GULF SHORES    CLOUDY    79  73  83 SE7       30.01S
PENSACOLA      CLOUDY    80  72  76 SE7       30.01R
DESTIN         MOSUNNY   81  74  79 SE14      30.01S
PANAMA CITY    MOSUNNY   82  70  67 S13       30.00F
APPALACHICOLA  MOSUNNY   81  72  74 S9        30.01F
$$




USA.gov is the U.S. government's official web portal to all federal, state and local government web resources and services.